Sauk Centre, MN

12:58 PM CDT on May 21, 2018 (GMT -0500)
Sauk Centre

Weather History for KD39 - May, 2013

Change the Weather History Date:

Tuesday, May 28, 2013

  Actual Average (KGHW) Record (KGHW)
Temperature  
Mean Temperature 56 °F -  
Max Temperature 60 °F 74 °F 98 °F (2006)
Min Temperature 51 °F 50 °F 5 °F (2000)
Degree Days  
Heating Degree Days 10    
Growing Degree Days 6 (Base 50)    
Moisture  
Dew Point 52 °F    
Average Humidity 91    
Maximum Humidity 100    
Minimum Humidity 77    
Precipitation  
Precipitation 0.00 in - - ()
Sea Level Pressure  
Sea Level Pressure 29.75 in    
Wind  
Wind Speed 6 mph (ESE)    
Max Wind Speed 13 mph    
Max Gust Speed -    
Visibility 8 miles    
Events      
Averages and records for this station are not official NWS values.
T = Trace of Precipitation, MM = Missing Value Source: NWS Daily Summary

Daily Weather History Graph

Daily Weather History Graph

Search for Another Location

Airport or City:

Astronomy

May. 28, 2013 Rise Set
Actual Time 5:36 AM CDT 8:58 PM CDT
Civil Twilight 4:59 AM CDT 9:35 PM CDT
Nautical Twilight 4:11 AM CDT 10:23 PM CDT
Astronomical Twilight 3:10 AM CDT 11:24 PM CDT
Moon No Moon Rise 9:30 AM CDT (5/28)
Length of Visible Light 16h 35m
Length of Day
15h 22m
Waning Gibbous, 82% of the Moon is Illuminated
May 28
Waning Gibbous
May 31
Last Quarter
Jun 8
New
Jun 16
First Quarter
Jun 23
Full

Hourly Weather History & Observations

Time (CDT) Temp. Dew Point Humidity Pressure Visibility Wind Dir Wind Speed Gust Speed Precip Events Conditions
12:15 AM 55.4 °F 51.8 °F 88% 29.82 in 10.0 mi ESE 12.7 mph - N/A   Overcast
12:35 AM 55.4 °F 51.8 °F 88% 29.82 in 10.0 mi ESE 9.2 mph - N/A   Overcast
12:55 AM 53.6 °F 51.8 °F 94% 29.82 in 10.0 mi ESE 9.2 mph - N/A   Overcast
1:15 AM 53.6 °F 51.8 °F 94% 29.79 in 10.0 mi East 6.9 mph - N/A   Overcast
1:35 AM 53.6 °F 51.8 °F 94% 29.79 in 7.0 mi East 4.6 mph - N/A   Overcast
1:55 AM 53.6 °F 51.8 °F 94% 29.80 in 7.0 mi ESE 5.8 mph - N/A   Overcast
2:15 AM 53.6 °F 51.8 °F 94% 29.80 in 4.0 mi ESE 5.8 mph - N/A   Overcast
2:35 AM 53.6 °F 51.8 °F 94% 29.81 in 2.5 mi ESE 4.6 mph - N/A   Overcast
2:55 AM 53.6 °F 51.8 °F 94% 29.81 in 1.8 mi Calm Calm - N/A   Overcast
3:15 AM 53.6 °F 51.8 °F 94% 29.81 in 1.5 mi East 4.6 mph - N/A   Drizzle
3:35 AM 51.8 °F 51.8 °F 100% 29.78 in 2.0 mi East 4.6 mph - N/A   Light Drizzle
3:55 AM 51.8 °F 51.8 °F 100% 29.77 in 3.0 mi East 5.8 mph - N/A   Overcast
4:15 AM 51.8 °F 51.8 °F 100% 29.77 in 4.0 mi East 5.8 mph - N/A   Overcast
4:35 AM 51.8 °F 51.8 °F 100% 29.77 in 3.0 mi ESE 8.1 mph - N/A   Overcast
4:55 AM 51.8 °F 51.8 °F 100% 29.76 in 2.0 mi East 5.8 mph - N/A   Overcast
5:15 AM 51.8 °F 51.8 °F 100% 29.75 in 2.0 mi East 9.2 mph - N/A   Overcast
5:35 AM 51.8 °F 51.8 °F 100% 29.74 in 3.0 mi ENE 11.5 mph - N/A   Overcast
5:55 AM 51.8 °F 51.8 °F 100% 29.75 in 4.0 mi East 6.9 mph - N/A   Overcast
6:15 AM 51.8 °F 51.8 °F 100% 29.75 in 7.0 mi East 9.2 mph - N/A   Overcast
6:35 AM 51.8 °F 51.8 °F 100% 29.74 in 7.0 mi East 9.2 mph - N/A   Overcast
6:55 AM 51.8 °F 51.8 °F 100% 29.74 in 5.0 mi East 5.8 mph - N/A   Overcast
7:15 AM 51.8 °F 50.0 °F 94% 29.74 in 10.0 mi East 5.8 mph - N/A   Overcast
7:35 AM 51.8 °F 50.0 °F 94% 29.74 in 10.0 mi ESE 6.9 mph - N/A   Overcast
7:55 AM 51.8 °F 51.8 °F 100% 29.74 in 5.0 mi East 6.9 mph - N/A   Overcast
8:15 AM 51.8 °F 51.8 °F 100% 29.73 in 5.0 mi East 8.1 mph - N/A   Overcast
8:35 AM 51.8 °F 51.8 °F 100% 29.72 in 4.0 mi East 8.1 mph - N/A   Overcast
8:55 AM 51.8 °F 51.8 °F 100% 29.73 in 4.0 mi East 8.1 mph - N/A   Overcast
9:15 AM 51.8 °F 51.8 °F 100% 29.73 in 7.0 mi ESE 9.2 mph - N/A   Overcast
9:35 AM 53.6 °F 51.8 °F 94% 29.72 in 10.0 mi ESE 8.1 mph - N/A   Overcast
9:55 AM 53.6 °F 51.8 °F 94% 29.73 in 10.0 mi ESE 8.1 mph - N/A   Overcast
10:15 AM 53.6 °F 51.8 °F 94% 29.73 in 10.0 mi ESE 8.1 mph - N/A   Overcast
10:35 AM 55.4 °F 51.8 °F 88% 29.72 in 10.0 mi East 10.4 mph - N/A   Overcast
10:55 AM 55.4 °F 51.8 °F 88% 29.75 in 10.0 mi ENE 4.6 mph - N/A   Overcast
11:15 AM 55.4 °F 51.8 °F 88% 29.75 in 10.0 mi East 5.8 mph - N/A   Overcast
11:35 AM 55.4 °F 51.8 °F 88% 29.75 in 10.0 mi SE 5.8 mph - N/A   Overcast
11:55 AM 55.4 °F 51.8 °F 88% 29.75 in 10.0 mi East 3.5 mph - N/A   Overcast
12:15 PM 55.4 °F 51.8 °F 88% 29.75 in 10.0 mi Calm Calm - N/A   Overcast
12:35 PM 55.4 °F 51.8 °F 88% 29.75 in 10.0 mi Calm Calm - N/A   Overcast
12:55 PM 55.4 °F 51.8 °F 88% 29.74 in 10.0 mi East 5.8 mph - N/A   Overcast
1:15 PM 55.4 °F 51.8 °F 88% 29.74 in 10.0 mi ESE 3.5 mph - N/A   Overcast
1:35 PM 55.4 °F 51.8 °F 88% 29.74 in 10.0 mi ESE 4.6 mph - N/A   Overcast
1:55 PM 55.4 °F 51.8 °F 88% 29.74 in 10.0 mi ESE 3.5 mph - N/A   Overcast
2:15 PM 55.4 °F 53.6 °F 94% 29.74 in 10.0 mi SSE 4.6 mph - N/A   Overcast
2:35 PM 55.4 °F 51.8 °F 88% 29.75 in 10.0 mi Calm Calm - N/A   Overcast
2:55 PM 55.4 °F 53.6 °F 94% 29.75 in 7.0 mi South 3.5 mph - N/A   Overcast
3:15 PM 55.4 °F 53.6 °F 94% 29.75 in 5.0 mi South 4.6 mph - N/A   Overcast
3:35 PM 55.4 °F 53.6 °F 94% 29.75 in 5.0 mi SSE 3.5 mph - N/A   Overcast
3:55 PM 57.2 °F 53.6 °F 88% 29.75 in 7.0 mi Calm Calm - N/A   Overcast
4:15 PM 57.2 °F 53.6 °F 88% 29.74 in 10.0 mi ESE 4.6 mph - N/A   Overcast
4:35 PM 59.0 °F 53.6 °F 82% 29.74 in 10.0 mi ESE 3.5 mph - N/A   Overcast
4:55 PM 59.0 °F 53.6 °F 82% 29.73 in 10.0 mi East 3.5 mph - N/A   Mostly Cloudy
5:15 PM 60.8 °F 53.6 °F 77% 29.73 in 10.0 mi Calm Calm - N/A   Mostly Cloudy
5:35 PM 60.8 °F 53.6 °F 77% 29.73 in 10.0 mi SSW 3.5 mph - N/A   Overcast
5:55 PM 60.8 °F 53.6 °F 77% 29.74 in 10.0 mi South 4.6 mph - N/A   Overcast
6:15 PM 60.8 °F 53.6 °F 77% 29.74 in 7.0 mi Calm Calm - N/A   Overcast
6:35 PM 59.0 °F 53.6 °F 82% 29.74 in 10.0 mi South 5.8 mph - N/A   Overcast
6:55 PM 59.0 °F 53.6 °F 82% 29.74 in 10.0 mi South 3.5 mph - N/A   Overcast
7:15 PM 59.0 °F 53.6 °F 82% 29.74 in 10.0 mi Calm Calm - N/A   Overcast
7:35 PM 59.0 °F 53.6 °F 82% 29.73 in 10.0 mi Calm Calm - N/A   Overcast
7:55 PM 59.0 °F 53.6 °F 82% 29.73 in 10.0 mi SE 3.5 mph - N/A   Overcast
8:15 PM 59.0 °F 53.6 °F 82% 29.73 in 10.0 mi SE 4.6 mph - N/A   Overcast
8:35 PM 59.0 °F 53.6 °F 82% 29.72 in 10.0 mi SE 4.6 mph - N/A   Overcast
8:55 PM 59.0 °F 53.6 °F 82% 29.72 in 7.0 mi ESE 5.8 mph - N/A   Overcast
9:15 PM 57.2 °F 53.6 °F 88% 29.71 in 7.0 mi East 6.9 mph - N/A   Overcast
9:35 PM 57.2 °F 53.6 °F 88% 29.73 in 10.0 mi SE 4.6 mph - N/A   Overcast
9:55 PM 57.2 °F 53.6 °F 88% 29.74 in 10.0 mi SSE 4.6 mph - N/A   Overcast
10:15 PM 57.2 °F 53.6 °F 88% 29.75 in 10.0 mi SSE 5.8 mph - N/A   Overcast
10:35 PM 55.4 °F 53.6 °F 94% 29.75 in 10.0 mi SSE 5.8 mph - N/A   Overcast
10:55 PM 55.4 °F 53.6 °F 94% 29.75 in 7.0 mi SE 5.8 mph - N/A   Overcast
11:15 PM 55.4 °F 53.6 °F 94% 29.75 in 7.0 mi SSE 5.8 mph - N/A   Mostly Cloudy
11:35 PM 53.6 °F 53.6 °F 100% 29.73 in 7.0 mi ESE 4.6 mph - N/A   Scattered Clouds
11:55 PM 53.6 °F 51.8 °F 94% 29.76 in 7.0 mi SSE 5.8 mph - N/A   Clear